Location: Dumpton Point
(51.3500°N, 1.4433°E)
Time: 23:20:12
(UTC+00:00)

Vanguard 2 Rocket - Pass Details

Date: 01 October 2022
Orbit: 555 x 3321 km, 32.9° (Epoch: 09 December)

Event Time Altitude Azimuth Distance (km) Brightness Sun altitude
Rises 22:29:24 0° 219° (SW) 6,521 11.1 -39.6°
Enters shadow 22:30:22 - 218° (SW) 6,288 11.0 -39.7°
Reaches altitude 10° 22:35:51 10° 206° (SSW) 4,988 - -40.0°
Maximum altitude 22:44:04 19° 168° (SSE) 3,482 - -40.5°
Drops below altitude 10° 22:50:05 10° 127° (SE) 3,499 - -40.8°
Sets 22:53:31 0° 110° (ESE) 4,071 - -41.0°
